[[{"header":{"parameterUnit":"m.s-1","parameterCategory":1,"la1":30.2991,"la2":30.254,"lo1":-89.0895,"lo2":-89.0444,"dy":0.0017,"dx":0.0017,"nx":28,"ny":28,"refTime":"2023-07-28T21:00:00:Z","depth":0,"parameterNumber":2,"parameterNumberName":"U-component_of_WINDS"},"data":[0,0,0,0,0,0,0,0,0,0,0,0,0,0,0,0,0,0,0,0,0,0,0,0,0,0,0,0,0,0,0,0,0,0,0,0,0,0,0,0,0,0,0,0,0,0,0,0,0,0,0,0,0,0,0,0,0,0,1.2323,1.2324,0,1.2416,1.2417,1.2419,1.2367,1.2365,1.2362,1.236,1.2462,1.2467,1.2472,0,0,0,0,0,0,0,0,0,0,0,0,0,1.2107,1.2111,1.2323,1.2324,1.2325,1.2416,1.2418,1.2419,1.2368,1.2365,1.2361,1.2358,1.2461,1.2467,1.2473,0,0,0,0,0,0,0,0,0,0,0,0,0,1.2201,1.2112,1.2323,1.2311,1.231,1.2416,1.2418,1.2419,1.2368,1.2364,1.2361,1.2357,1.2459,1.2466,1.2474,1.2599,0,0,1.2497,1.25,0,0,0,0,0,0,0,0,1.2195,1.2209,1.2311,1.2312,1.2312,1.2376,1.2379,1.248,1.2369,1.2347,1.236,1.2355,1.2437,1.2446,1.2473,1.2603,1.2608,1.2498,1.2502,1.2506,1.2508,0,0,0,0,0,0,0,1.2189,1.2204,1.236,1.2313,1.2313,1.2303,1.2312,1.2398,1.2413,1.2348,1.2345,1.2356,1.2437,1.2465,1.2475,1.2609,1.2498,1.2504,1.2509,1.2512,1.2849,1.2853,0,0,0,0,0,0,1.2182,1.2199,1.2357,1.2363,1.2243,1.231,1.232,1.2359,1.2412,1.2416,1.2359,1.2353,1.2454,1.2466,1.2478,1.2629,1.2506,1.2513,1.2517,1.2844,1.285,1.2854,0,0,0,0,0,0,1.2178,1.2197,1.2353,1.228,1.2299,1.2317,1.2362,1.2363,1.2392,1.242,1.2423,1.2386,1.2451,1.2467,1.2569,1.2632,1.2516,1.2523,1.2839,1.2846,1.2852,1.2931,0,0,0,0,0,0,1.2172,1.2196,1.2242,1.2282,1.2303,1.2441,1.2366,1.2368,1.2404,1.2398,1.2445,1.245,1.245,1.2558,1.2576,1.264,1.2529,1.2834,1.2842,1.285,1.2923,1.2939,1.2953,0,0,0,0,0,1.2164,1.2262,1.2244,1.2264,1.2361,1.2445,1.2457,1.2454,1.241,1.2458,1.2475,1.2448,1.2621,1.2568,1.2589,1.2656,1.283,1.284,1.2849,1.2916,1.2936,1.2953,0,0,0,0,0,0,1.2231,1.2267,1.2248,1.2361,1.24,1.2436,1.2496,1.2475,1.2529,1.2521,1.2516,1.2527,1.2633,1.2654,1.2595,1.278,1.2719,1.2733,1.2763,1.2782,1.2797,1.279,1.2536,0,0,0,0,0,1.2259,1.2321,1.235,1.2446,1.2467,1.2478,1.2514,1.2508,1.2549,1.2566,1.2591,1.2634,1.2698,1.2741,1.2802,1.2925,1.2936,1.2981,1.2997,1.3009,1.3022,1.309,1.3112,1.2886,1.2886,1.2886,0,0,1.2317,1.2344,1.2384,1.2461,1.249,1.2557,1.2492,1.2566,1.2617,1.2578,1.2675,1.2695,1.2743,1.2856,1.2907,1.2878,1.3086,1.3021,1.3031,1.3038,1.3103,1.3124,1.3143,1.2893,1.2892,1.2891,0,0,1.2458,1.2484,1.2567,1.2598,1.2643,1.2649,1.2669,1.2709,1.272,1.2817,1.2789,1.285,1.296,1.2996,1.3028,1.3182,1.3159,1.3202,1.3282,1.3349,1.3367,1.3382,1.3439,1.3459,1.3214,1.3214,1.3215,0,1.2525,1.2623,1.2614,1.269,1.2725,1.269,1.2776,1.2807,1.287,1.2896,1.2861,1.2999,1.3028,1.315,1.3187,1.3214,1.3239,1.3197,1.3364,1.338,1.3395,1.3448,1.3469,1.3219,1.3219,1.3218,1.3218,0,1.2705,1.2773,1.2836,1.2896,1.2938,1.3019,1.3023,1.3067,1.3057,1.3068,1.3168,1.3202,1.3269,1.3297,1.3288,1.3418,1.3398,1.3364,1.3302,1.3421,1.3472,1.3492,1.3227,1.3225,1.3223,1.3222,0,0,1.2892,1.2944,1.2968,1.2995,1.3041,1.3095,1.3175,1.3238,1.3277,1.3321,1.339,1.3483,1.3451,1.3488,1.3483,1.3542,1.3663,1.35,1.3501,1.3531,1.3809,1.3836,1.386,1.3647,1.3651,1.3654,1.3806,0,1.3037,1.3174,1.3168,1.3297,1.3361,1.3329,1.3399,1.3436,1.3448,1.3506,1.352,1.3587,1.3539,1.3562,1.3617,1.3636,1.3719,1.3625,1.3713,1.3716,1.3704,1.3886,1.3914,1.4056,1.3825,1.3829,1.3831,0,1.3225,1.3274,1.3409,1.3446,1.3473,1.3535,1.3593,1.3648,1.369,1.3695,1.3735,1.3721,1.3804,1.3738,1.3854,1.379,1.3825,1.384,1.3845,1.3855,1.3782,1.3902,1.4101,1.4123,1.3862,1.3859,1.3857,0,1.335,1.345,1.3543,1.3567,1.3612,1.3657,1.3679,1.3716,1.3755,1.3806,1.3832,1.3892,1.3926,1.3975,1.3978,1.393,1.4095,1.4029,1.4103,1.4104,1.4141,1.4139,1.435,1.4161,1.4161,1.4161,1.416,0,1.3514,1.3598,1.36,1.3658,1.3752,1.3745,1.3839,1.3856,1.389,1.3952,1.3928,1.3987,1.3987,1.4048,1.4051,1.4147,1.4162,1.417,1.417,1.4173,1.4173,1.4198,1.4189,1.4166,1.4165,1.4164,1.4163,0,1.367,1.3674,1.3775,1.3809,1.3819,1.3887,1.3917,1.3973,1.3983,1.4062,1.408,1.4096,1.4167,1.4174,1.4257,1.4258,1.4375,1.4364,1.436,1.4359,1.4433,1.4427,1.4669,1.4702,1.449,1.4492,1.4494,0,1.3775,1.3839,1.3879,1.3918,1.3941,1.4004,1.4043,1.4038,1.408,1.4132,1.4183,1.425,1.4304,1.4419,1.444,1.4503,1.4494,1.4575,1.4504,1.4505,1.4497,1.4494,1.4501,1.4589,1.4592,1.4594,1.4595,0,1.3962,1.396,1.4016,1.4073,1.4119,1.4164,1.4206,1.424,1.424,1.4289,1.4359,1.4401,1.4484,1.4553,1.4615,1.4639,1.4619,1.4617,1.4638,1.4642,1.4638,1.4643,1.44,1.4612,1.461,1.4609,1.4608,1.4607,1.4097,1.4152,1.4189,1.4252,1.4283,1.4322,1.4377,1.4392,1.445,1.4516,1.451,1.4589,1.463,1.4711,1.4739,1.4802,1.4776,1.4805,1.4813,1.4821,1.4829,1.4626,1.4813,1.4813,1.4812,1.4812,1.4812,0,1.4284,1.4305,1.4363,1.4421,1.4471,1.4444,1.4489,1.4534,1.4602,1.4641,1.4694,1.4776,1.4842,1.4867,1.4932,1.4977,1.497,1.4995,1.4993,1.4999,1.4849,1.4825,1.5,1.5,1.5,1.5,1.5,1.5,1.4387,1.4479,1.4483,1.4591,1.4612,1.4687,1.4716,1.4753,1.4784,1.4876,1.4929,1.4944,1.4978,1.5045,1.5105,1.511,1.5136,1.5166,1.5168,1.5028,1.5009,1.4991,1.4969,1.5171,1.5171,1.5313,1.5314,1.5315]},{"header":{"parameterUnit":"m.s-1","parameterCategory":1,"la1":30.2991,"la2":30.254,"lo1":-89.0895,"lo2":-89.0444,"dy":0.0017,"dx":0.0017,"nx":28,"ny":28,"refTime":"2023-07-28T21:00:00:Z","depth":0,"parameterNumber":3,"parameterNumberName":"V-component_of_WINDS"},"data":[0,0,0,0,0,0,0,0,0,0,0,0,0,0,0,0,0,0,0,0,0,0,0,0,0,0,0,0,0,0,0,0,0,0,0,0,0,0,0,0,0,0,0,0,0,0,0,0,0,0,0,0,0,0,0,0,0,0,2.2094,2.2094,0,2.213,2.213,2.2131,2.2123,2.2122,2.2122,2.2121,2.2157,2.2158,2.216,0,0,0,0,0,0,0,0,0,0,0,0,0,2.2014,2.2015,2.2094,2.2094,2.2095,2.213,2.2131,2.2131,2.2123,2.2122,2.2121,2.2121,2.2156,2.2158,2.216,0,0,0,0,0,0,0,0,0,0,0,0,0,2.2049,2.2016,2.2094,2.2095,2.2095,2.213,2.2131,2.2131,2.2123,2.2122,2.2121,2.212,2.2155,2.2158,2.216,2.2195,0,0,2.2167,2.2168,0,0,0,0,0,0,0,0,2.2047,2.2052,2.2094,2.2095,2.2096,2.2121,2.2115,2.2153,2.2123,2.2113,2.2121,2.212,2.2145,2.2149,2.2158,2.2197,2.2198,2.2168,2.2169,2.217,2.2171,0,0,0,0,0,0,0,2.2045,2.205,2.2108,2.2095,2.2096,2.2092,2.2096,2.2122,2.2134,2.2113,2.2113,2.2117,2.2146,2.2155,2.2158,2.2199,2.2167,2.217,2.2171,2.2172,2.2264,2.2265,0,0,0,0,0,0,2.2042,2.2048,2.2107,2.2109,2.2068,2.2095,2.2099,2.2114,2.2134,2.2136,2.2118,2.2117,2.2152,2.2156,2.216,2.2199,2.217,2.2172,2.2174,2.2263,2.2264,2.2265,0,0,0,0,0,0,2.204,2.2047,2.2105,2.2079,2.2086,2.2097,2.2114,2.2115,2.2125,2.2138,2.2139,2.2126,2.2151,2.2156,2.2185,2.22,2.2173,2.2175,2.2262,2.2263,2.2265,2.2279,0,0,0,0,0,0,2.2038,2.2047,2.2061,2.2079,2.2087,2.2132,2.2115,2.2116,2.2129,2.2128,2.2146,2.2148,2.2151,2.2182,2.2188,2.2203,2.2177,2.226,2.2262,2.2264,2.2278,2.2281,2.2284,0,0,0,0,0,2.2035,2.2065,2.2062,2.2069,2.2106,2.2133,2.2137,2.2141,2.213,2.2144,2.2152,2.2147,2.2198,2.2185,2.2192,2.2208,2.2259,2.2262,2.2264,2.2276,2.2281,2.2284,0,0,0,0,0,0,2.2049,2.2067,2.2065,2.2101,2.2115,2.2132,2.2149,2.2146,2.2164,2.2162,2.2165,2.2169,2.2198,2.2206,2.2191,2.224,2.2227,2.2231,2.2234,2.2238,2.2241,2.2238,2.2179,0,0,0,0,0,2.2056,2.2077,2.2092,2.2122,2.213,2.2138,2.215,2.2151,2.2166,2.2172,2.2182,2.2196,2.2215,2.2227,2.2245,2.2279,2.2281,2.2293,2.2296,2.2299,2.2302,2.2316,2.2321,2.2273,2.2273,2.2273,0,0,2.2071,2.2084,2.2097,2.2125,2.2137,2.2157,2.2143,2.2167,2.2181,2.2176,2.2203,2.2211,2.2226,2.2257,2.2271,2.2264,2.2315,2.2302,2.2304,2.2305,2.2319,2.2324,2.2328,2.2274,2.2274,2.2274,0,0,2.2109,2.2122,2.2147,2.2158,2.2175,2.2179,2.2185,2.2201,2.2206,2.2234,2.2229,2.2246,2.2279,2.2289,2.2299,2.2336,2.2331,2.2342,2.2359,2.2373,2.2377,2.238,2.2391,2.2395,2.2345,2.2345,2.2345,0,2.2125,2.2156,2.216,2.2182,2.2193,2.2189,2.2212,2.2223,2.2245,2.2252,2.2245,2.2284,2.2294,2.2325,2.2334,2.2343,2.2348,2.2339,2.2376,2.238,2.2383,2.2393,2.2397,2.2346,2.2346,2.2346,2.2346,0,2.2174,2.2195,2.2213,2.2234,2.2247,2.227,2.2275,2.2288,2.2287,2.2292,2.2318,2.233,2.2349,2.2357,2.2357,2.2387,2.2382,2.2376,2.2362,2.2388,2.2398,2.2402,2.2347,2.2347,2.2347,2.2346,0,0,2.2222,2.2242,2.2248,2.2255,2.2272,2.2288,2.231,2.2328,2.2338,2.2352,2.2369,2.2395,2.2388,2.2399,2.24,2.2413,2.2438,2.2404,2.2405,2.2408,2.2468,2.2472,2.2476,2.2435,2.2436,2.2437,2.2466,0,2.2259,2.2297,2.2299,2.2333,2.2351,2.2346,2.2364,2.2375,2.238,2.2395,2.24,2.2417,2.2408,2.2414,2.2427,2.2432,2.245,2.2431,2.2449,2.2449,2.2443,2.2482,2.2486,2.2513,2.247,2.2471,2.2471,0,2.2307,2.2322,2.2357,2.2368,2.2376,2.2392,2.2407,2.2422,2.2434,2.2436,2.2447,2.2445,2.2465,2.2451,2.2477,2.2464,2.2471,2.2475,2.2476,2.2476,2.2461,2.2481,2.2522,2.2526,2.2478,2.2477,2.2477,0,2.2334,2.2363,2.2387,2.2394,2.2409,2.242,2.2426,2.2437,2.2447,2.246,2.2465,2.2481,2.2489,2.25,2.2501,2.2492,2.2526,2.2514,2.2527,2.2527,2.2534,2.2533,2.2574,2.2542,2.2542,2.2541,2.2541,0,2.2374,2.2395,2.2399,2.2414,2.2436,2.2438,2.246,2.2465,2.2474,2.2489,2.2486,2.2499,2.2501,2.2514,2.2516,2.2535,2.254,2.254,2.254,2.254,2.2539,2.2544,2.2541,2.2543,2.2542,2.2542,2.2542,0,2.2408,2.2412,2.2437,2.2448,2.2451,2.2467,2.2476,2.2489,2.2492,2.251,2.2514,2.252,2.2535,2.2538,2.2556,2.2557,2.2579,2.2578,2.2575,2.2574,2.2587,2.2585,2.2631,2.2636,2.2602,2.2602,2.2602,0,2.2432,2.2448,2.246,2.2469,2.2475,2.2491,2.25,2.2501,2.2511,2.2524,2.2534,2.2549,2.2561,2.2585,2.259,2.2603,2.2601,2.2616,2.2603,2.2601,2.2598,2.2596,2.2597,2.2618,2.2619,2.2619,2.2619,0,2.2473,2.2473,2.2487,2.2501,2.2512,2.2523,2.2533,2.254,2.2543,2.2553,2.2568,2.2577,2.2595,2.2609,2.2621,2.2627,2.2622,2.2623,2.2627,2.2625,2.2622,2.2622,2.258,2.2622,2.2622,2.2622,2.2621,2.2621,2.2501,2.2513,2.2523,2.2537,2.2545,2.2554,2.2565,2.257,2.2583,2.2597,2.2597,2.2612,2.2621,2.2637,2.2643,2.2655,2.265,2.2655,2.2656,2.2657,2.2657,2.2621,2.2657,2.2657,2.2657,2.2657,2.2657,0,2.2539,2.2544,2.2558,2.2571,2.2582,2.2578,2.2588,2.2597,2.2611,2.2619,2.263,2.2646,2.2659,2.2664,2.2676,2.2684,2.2682,2.2687,2.2686,2.2686,2.2662,2.2657,2.2688,2.2688,2.2688,2.2688,2.2688,2.2688,2.256,2.258,2.2581,2.2604,2.2609,2.2624,2.263,2.2638,2.2644,2.2662,2.2672,2.2676,2.2682,2.2694,2.2705,2.2706,2.271,2.2715,2.2715,2.2692,2.2689,2.2685,2.268,2.2716,2.2716,2.2738,2.2738,2.2738]}]]